Location: Beetenbrück
(52.8113°N, 9.5946°E)
Time: 22:34:15
(UTC+00:00)

ALOS 2 - Pass Details

Date: 14 April 2026
Orbit: 630 x 632 km, 97.9° (Epoch: 12 May)

Event Time Altitude Azimuth Distance (km) Brightness Sun altitude
Exits shadow 21:53:42 37° 63° (ENE) 1,000 3.6 -24.7°
Drops below altitude 10° 21:57:40 10° 359° (N) 2,028 6.1 -25.0°
Sets 22:00:00 0° 351° (N) 2,940 7.3 -25.1°
